Wind_Speed
38 35 32 28 25 24 23 21 21 20 21 21 21 21 21 19 18 19 19 19 20 22 21 21 23 25 24 27 29 28 31 31 32 35 36 37 38 38 36 34 36 35 38 44 43 41 40 38 37 37 33 32 33 35
36 33 30 28 26 23 22 22 21 21 21 20 20 20 20 20 20 20 19 19 19 19 18 21 23 24 25 28 29 31 33 34 35 36 38 39 39 37 35 35 36 35 34 38 41 39 36 34 32 33 33 34 35 35
33 31 28 26 26 24 22 21 21 20 21 22 21 20 20 20 19 19 18 18 18 17 17 19 20 21 24 24 26 28 33 35 35 36 39 41 41 37 36 35 36 36 32 34 37 39 36 34 32 30 33 35 35 37
35 32 29 26 24 23 21 19 18 18 19 20 20 20 20 20 19 18 18 17 17 17 17 18 18 18 19 21 23 27 30 31 32 34 36 38 38 37 37 37 36 37 34 32 34 38 42 40 41 41 41 42 41 40
35 32 30 27 25 22 20 17 16 16 16 16 17 18 19 19 19 18 19 18 17 17 17 18 19 19 20 21 21 22 23 24 26 26 27 28 32 35 36 37 36 37 36 34 33 34 37 40 42 42 43 42 35 33
33 30 30 30 27 23 21 19 17 15 14 14 15 16 17 18 19 18 18 20 20 19 18 19 20 20 21 22 23 24 26 27 27 26 26 25 27 31 32 31 30 31 31 32 32 30 31 33 36 38 36 31 30 29
33 30 32 31 29 25 23 19 16 15 14 11 11 12 15 17 18 18 18 19 20 21 20 21 22 20 22 23 23 23 23 24 26 27 28 30 32 34 33 30 28 29 30 31 30 31 32 34 37 35 31 30 29 29
41 35 32 32 29 27 26 22 17 16 14 13 10 9 9 10 11 14 17 18 19 20 22 23 23 22 23 23 23 24 24 24 24 24 26 28 29 32 29 27 30 31 31 33 33 34 35 36 34 31 30 29 29 29
33 32 34 32 28 27 26 29 23 18 16 15 14 13 13 13 12 12 14 16 18 19 21 24 25 25 23 23 24 24 25 26 26 26 29 30 30 29 27 27 26 26 29 31 33 33 35 34 29 27 28 27 28 28
34 32 34 30 30 27 23 27 27 24 19 18 17 16 17 17 16 15 15 15 16 17 18 21 23 23 22 24 26 26 26 27 27 28 31 28 25 26 26 25 25 26 27 27 29 31 31 29 26 26 26 26 27 27
35 33 33 30 29 25 21 23 26 27 23 20 19 18 19 19 19 18 17 16 17 17 18 18 19 19 20 21 22 25 25 27 25 24 28 24 20 23 23 24 24 24 25 26 27 27 26 25 23 24 25 26 28 30
31 30 32 28 28 23 20 23 26 26 26 25 24 19 17 18 19 19 17 17 17 17 18 18 19 20 20 20 21 22 23 24 20 19 21 19 21 22 23 23 22 22 23 26 25 24 23 22 22 23 25 28 31 30
31 32 32 30 27 24 19 17 18 27 27 25 26 21 19 18 19 19 18 17 16 15 16 17 19 19 19 20 19 18 18 18 17 17 18 19 25 26 23 23 23 24 26 26 27 26 24 24 24 26 29 30 30 30
34 34 31 26 23 20 15 16 16 17 25 26 28 23 21 20 17 18 19 19 18 17 17 17 17 17 19 19 20 17 15 15 13 13 17 18 17 21 23 23 24 26 26 24 24 25 25 25 26 30 29 28 28 29
34 31 27 23 19 12 10 10 14 15 14 20 25 24 22 21 19 19 20 20 20 20 19 19 18 18 19 19 20 18 18 15 12 13 13 12 15 18 20 21 22 22 22 22 23 24 25 26 24 24 25 27 27 27
32 28 23 20 14 12 11 13 17 20 20 19 21 23 25 25 22 21 21 21 21 22 23 21 21 20 19 20 19 25 22 22 20 20 15 13 11 12 16 17 17 19 23 24 25 23 21 22 23 24 24 24 24 24
28 22 19 17 14 11 12 14 16 16 15 18 26 32 28 25 23 19 20 23 22 23 24 23 23 23 21 19 18 17 20 21 20 16 14 15 10 11 11 16 23 22 19 14 14 17 19 21 22 21 21 22 22 20
19 17 16 15 17 15 17 17 15 13 13 16 20 26 25 25 24 22 24 23 22 25 25 24 23 23 21 18 18 16 15 13 13 13 13 10 13 16 15 13 7 8 11 12 15 18 19 18 19 19 18 17 15 19
14 15 15 16 18 20 22 17 14 10 15 17 19 16 15 20 25 27 25 26 25 26 26 25 23 19 17 20 19 18 16 14 13 14 9 6 9 13 12 8 11 11 10 13 15 15 15 16 17 16 13 11 13 10
14 15 17 19 18 16 13 13 14 14 18 20 19 18 20 24 24 24 25 26 25 24 24 22 21 19 19 22 20 23 23 16 14 13 12 9 10 13 10 8 11 10 11 11 11 12 14 14 14 12 9 8 6 4
8 8 8 9 10 13 14 15 16 15 18 21 19 18 22 23 22 22 24 26 24 23 26 26 26 26 25 21 21 24 26 22 14 14 11 12 12 12 6 9 9 9 8 9 9 10 11 9 11 10 5 2 4 3
11 11 11 12 12 13 14 15 15 14 16 16 16 17 20 20 20 20 21 21 23 25 25 25 24 26 23 22 24 24 23 25 16 16 9 9 9 8 10 9 7 6 7 8 8 8 10 2 2 5 7 4 2 8
12 12 12 13 14 16 17 17 17 16 17 16 16 16 16 16 16 17 18 19 18 17 17 20 19 18 17 20 20 25 25 25 21 20 12 12 12 10 9 7 7 6 6 7 7 7 7 1 2 3 1 1 3 3
14 14 16 17 19 19 20 19 18 16 16 15 15 12 11 11 11 11 13 12 10 10 11 12 15 16 17 17 17 21 24 25 20 21 18 17 13 9 9 7 5 4 5 5 5 4 5 6 1 4 4 4 2 1
15 17 17 20 23 21 18 14 12 12 10 8 9 7 7 7 6 5 5 5 5 6 6 6 11 11 13 16 18 22 23 21 18 19 19 18 11 9 9 6 4 3 3 4 3 3 2 3 3 5 6 4 6 4
16 16 20 17 14 11 6 5 6 5 6 5 6 3 5 4 2 7 7 6 5 8 9 9 8 10 11 13 16 16 17 18 21 21 16 22 12 10 8 7 4 2 4 4 2 3 4 2 2 4 4 2 1 2
14 13 11 8 4 3 2 2 2 3 4 2 3 6 4 1 4 4 9 5 8 4 5 9 9 9 9 10 13 14 16 17 19 18 17 17 13 9 7 7 5 3 4 3 1 1 3 2 4 4 3 4 4 4
9 7 4 2 1 1 1 1 2 1 2 3 3 3 3 3 4 5 6 2 3 4 3 6 9 11 11 11 13 13 15 16 15 16 17 16 12 9 7 6 7 8 7 5 3 2 2 2 3 3 2 1 1 2
4 4 3 3 1 1 2 2 2 2 2 2 5 7 6 4 3 8 10 4 3 5 4 4 7 9 9 11 12 15 17 15 15 17 18 14 9 6 6 7 8 10 9 9 9 8 7 6 5 6 7 7 8 8
2 2 3 3 2 3 2 2 2 2 3 4 6 2 6 5 4 11 9 6 6 0 3 4 4 5 6 9 11 21 17 14 15 15 13 10 8 6 7 10 12 11 10 10 12 12 12 10 9 8 9 11 10 7
5 5 4 2 2 1 2 4 5 5 5 3 1 1 3 9 6 6 7 6 6 6 6 4 3 3 8 11 12 14 15 14 13 12 10 8 8 7 10 11 10 11 9 5 5 7 9 12 14 12 12 12 10 10
3 4 5 6 8 9 8 8 8 7 5 1 3 5 3 1 4 9 8 4 1 1 4 3 3 5 10 11 10 12 14 13 11 11 10 10 10 9 8 8 13 14 14 13 11 10 11 11 11 9 10 10 8 9
4 6 8 8 8 9 10 14 14 12 11 11 11 9 7 5 3 4 7 7 4 4 4 3 7 8 12 12 13 14 12 11 10 9 9 10 12 12 12 13 12 11 13 14 12 12 11 12 12 12 13 17 20 21
Wind_Direction
316 316 313 312 311 307 300 291 282 273 265 262 261 257 256 254 257 256 256 255 253 249 242 245 245 241 237 238 240 238 236 237 241 244 246 248 250 255 263 263 263 260 255 258 255 255 257 261 266 270 270 268 267 268
316 316 314 311 310 306 300 292 285 275 266 262 257 255 255 255 256 252 251 252 251 248 244 245 245 242 239 238 239 242 244 243 245 246 250 255 258 261 262 261 261 260 256 253 250 253 256 259 263 264 265 267 267 270
314 314 311 309 307 303 300 295 286 278 270 262 259 259 257 254 254 248 248 251 251 251 245 243 246 246 245 243 241 241 245 246 246 248 252 256 259 260 261 261 261 258 254 250 247 247 252 259 261 259 261 266 269 272
312 311 308 305 301 298 298 295 290 286 275 264 258 254 250 248 248 248 245 249 250 249 246 245 246 248 248 246 246 247 250 251 253 253 254 256 258 257 256 255 254 256 255 251 246 246 248 251 256 262 265 268 270 272
313 312 307 302 297 293 289 290 293 288 281 263 258 252 247 246 246 248 246 244 246 247 248 248 248 247 249 249 248 249 252 253 255 257 260 259 256 254 251 251 252 254 256 254 254 252 252 254 256 260 263 267 269 266
314 312 312 309 299 288 285 281 281 283 282 269 258 252 249 247 246 247 246 242 244 245 247 249 252 248 252 253 252 254 255 256 256 254 254 256 256 256 256 257 256 259 259 259 259 259 260 261 262 263 267 271 270 272
316 312 313 311 306 292 278 273 273 274 271 269 260 254 250 246 247 246 246 246 243 243 246 251 254 255 253 254 255 255 255 255 255 256 254 252 252 255 257 260 261 259 261 262 261 259 258 259 261 267 270 272 274 274
308 313 307 304 302 297 280 264 263 266 262 257 253 258 261 260 255 248 250 252 250 248 247 248 251 253 253 255 256 258 260 258 257 256 255 255 257 259 263 265 262 261 260 260 261 262 264 264 265 269 272 273 274 276
306 308 312 312 305 294 279 276 242 251 256 254 252 255 258 264 264 260 256 255 252 249 248 247 246 248 254 259 262 262 261 261 260 262 260 260 262 265 262 259 260 260 259 258 260 261 262 266 270 270 269 270 272 277
306 301 305 306 305 290 273 271 267 227 252 255 254 255 258 259 260 261 260 256 254 253 248 245 250 252 255 258 261 265 266 266 266 260 264 266 265 263 262 259 258 258 259 263 267 268 269 271 273 272 271 272 277 286
303 300 300 301 299 295 272 253 268 249 231 250 258 263 261 258 256 255 258 258 253 255 253 253 254 254 253 255 260 261 267 266 261 263 264 265 271 268 264 260 257 257 259 258 261 265 269 270 268 268 272 277 284 287
311 311 311 305 299 296 279 249 252 263 256 241 252 251 268 258 253 251 252 259 258 255 256 258 258 256 256 258 259 264 265 263 263 258 266 266 259 259 256 253 251 251 254 259 265 268 273 274 269 271 275 282 285 284
311 312 308 304 299 296 277 248 258 249 255 257 253 246 257 263 257 251 252 254 255 260 265 267 265 263 260 257 257 263 269 268 267 267 272 263 252 247 247 245 243 243 246 250 259 267 269 270 274 276 283 285 285 286
308 305 307 301 295 290 254 239 262 261 245 248 249 241 244 260 262 256 249 249 246 250 259 268 273 269 264 260 255 255 259 262 278 287 284 275 279 259 249 248 245 247 250 254 259 268 270 273 277 281 280 280 280 280
308 304 306 299 292 274 251 253 264 272 264 253 245 239 242 251 255 253 249 248 247 251 259 267 274 276 272 269 261 260 271 254 267 297 281 284 290 259 248 246 252 257 259 264 268 271 273 277 279 281 281 281 282 283
306 299 300 299 268 255 248 259 269 272 262 249 233 239 243 246 252 254 253 252 251 253 256 259 265 271 276 273 266 260 261 260 266 289 274 277 293 256 244 256 267 267 271 273 275 277 277 279 280 281 282 282 286 286
297 285 288 287 252 241 272 284 282 275 260 254 232 238 240 244 247 253 259 257 255 255 255 256 261 265 275 274 272 258 256 250 257 277 258 250 235 216 235 260 281 277 276 275 275 279 284 287 288 288 287 289 285 280
284 270 269 275 246 265 292 291 280 274 262 259 249 254 251 248 246 245 258 259 254 253 256 256 258 264 271 276 265 255 228 230 252 252 276 249 258 259 257 281 290 296 289 284 288 294 295 294 292 290 286 283 282 286
286 270 272 268 270 283 290 277 257 248 259 264 266 269 261 254 253 257 260 259 257 257 257 256 258 266 273 268 257 224 224 235 237 237 235 248 272 295 299 279 283 280 289 303 302 293 293 296 297 295 287 274 287 284
287 281 277 278 280 278 272 268 273 275 274 273 270 269 264 257 255 254 257 258 256 257 258 261 261 256 250 248 238 228 218 215 243 239 236 244 267 278 278 263 268 285 300 297 295 305 310 308 311 312 272 256 287 277
320 313 307 296 286 280 278 282 283 280 275 277 278 270 265 267 267 263 260 261 262 255 247 246 245 246 246 242 230 225 218 221 230 218 228 239 263 257 261 262 279 291 293 299 310 309 319 324 340 345 320 228 215 238
296 300 297 293 291 288 291 291 291 290 286 286 284 276 271 269 266 265 263 259 255 256 254 251 249 250 246 237 224 221 221 215 234 219 243 249 252 259 256 266 277 298 302 304 308 326 336 339 4 30 38 47 172 204
292 292 292 292 293 296 294 295 293 289 282 281 283 281 276 271 267 263 260 261 261 260 254 247 241 236 233 228 229 228 225 220 236 212 246 258 251 250 257 265 284 311 308 307 316 328 350 284 209 205 180 100 101 83
291 296 300 305 302 300 296 292 286 278 274 276 275 274 268 265 265 263 263 262 253 244 245 239 233 223 220 218 208 208 211 220 221 226 243 240 236 243 250 260 276 300 294 310 296 296 355 23 336 247 241 241 241 181
297 304 307 304 302 298 292 282 276 281 280 270 275 269 277 270 260 243 228 210 200 215 213 226 227 216 213 210 208 209 216 221 220 225 220 222 220 222 234 257 267 274 301 305 266 240 293 331 13 26 12 273 237 202
301 308 306 306 303 300 284 265 269 265 273 280 280 256 159 132 156 172 200 259 175 205 205 203 211 210 207 209 210 212 214 212 212 223 211 202 216 222 231 248 241 246 290 302 301 224 216 242 295 332 337 3 56 222
314 317 322 321 308 295 283 270 253 275 287 253 161 154 159 187 240 230 216 196 216 193 194 206 202 192 209 217 217 214 218 209 205 209 207 196 195 204 224 242 242 237 262 267 121 204 252 291 301 307 333 332 282 250
337 338 342 348 345 126 136 276 272 206 151 150 166 179 227 274 260 200 183 160 160 204 222 229 225 232 222 209 205 202 202 199 199 186 179 178 183 198 225 236 242 240 238 252 248 212 240 258 275 304 292 251 341 310
3 21 59 88 80 77 117 114 91 78 53 260 247 238 236 253 251 190 178 198 205 204 219 268 204 200 198 191 191 186 174 172 168 172 178 183 191 214 236 227 230 232 240 257 261 257 255 264 278 289 286 274 264 259
41 52 67 84 102 126 110 51 12 337 337 354 0 320 198 192 150 166 162 206 203 153 207 144 143 163 182 185 182 177 167 180 180 186 192 199 217 239 240 229 223 228 254 272 258 253 259 262 268 283 299 309 300 281
85 69 59 61 66 49 9 359 346 329 315 306 292 63 212 224 216 183 185 206 224 228 229 247 306 215 170 172 179 180 180 181 190 197 205 225 247 253 259 260 247 241 236 268 287 244 264 266 252 274 268 289 292 291
73 62 76 78 83 82 64 24 17 8 359 278 147 170 177 117 217 223 205 207 221 176 224 258 246 170 172 169 179 183 186 190 202 214 218 226 238 255 268 260 252 257 251 257 258 265 269 262 274 258 244 252 258 276
108 94 97 96 88 60 53 49 56 58 78 95 99 92 86 93 114 152 198 212 200 167 189 195 212 208 181 183 189 192 203 214 227 227 225 241 247 241 240 246 247 252 265 270 267 268 278 287 288 278 271 255 263 282
Height
5776 5772 5767 5763 5759 5756 5754 5752 5750 5749 5748 5748 5749 5750 5751 5751 5751 5752 5753 5754 5755 5756 5759 5760 5762 5764 5767 5769 5773 5777 5779 5781 5783 5784 5786 5789 5791 5793 5796 5797 5796 5798 5798 5798 5799 5799 5802 5803 5804 5806 5809 5809 5810 5810
5769 5764 5760 5757 5753 5750 5747 5745 5744 5743 5742 5741 5742 5743 5744 5745 5745 5746 5747 5748 5749 5750 5753 5754 5755 5757 5759 5762 5766 5768 5771 5773 5775 5778 5779 5780 5782 5784 5785 5786 5786 5788 5789 5790 5791 5791 5793 5795 5797 5798 5799 5800 5800 5800
5761 5756 5752 5748 5746 5743 5741 5738 5737 5736 5735 5735 5735 5736 5737 5738 5739 5740 5741 5742 5744 5745 5747 5748 5749 5751 5752 5755 5757 5761 5761 5763 5766 5769 5770 5771 5772 5775 5775 5776 5776 5776 5778 5780 5782 5784 5786 5788 5790 5790 5790 5790 5791 5790
5755 5750 5745 5741 5738 5736 5734 5732 5731 5729 5728 5728 5728 5729 5731 5732 5733 5734 5735 5737 5738 5740 5741 5743 5743 5745 5746 5748 5750 5752 5753 5755 5758 5760 5760 5762 5763 5764 5764 5765 5767 5767 5768 5771 5773 5776 5778 5780 5780 5781 5781 5781 5781 5782
5747 5743 5739 5734 5731 5729 5727 5726 5725 5724 5723 5722 5722 5723 5724 5726 5727 5728 5729 5731 5733 5735 5735 5736 5738 5739 5740 5742 5744 5745 5746 5748 5749 5751 5752 5753 5753 5753 5754 5756 5758 5759 5760 5762 5764 5767 5768 5769 5770 5771 5770 5771 5774 5773
5740 5736 5732 5728 5724 5722 5721 5720 5719 5719 5718 5717 5717 5718 5719 5720 5721 5723 5724 5725 5727 5728 5730 5731 5732 5734 5734 5735 5737 5738 5739 5740 5742 5743 5744 5745 5745 5744 5745 5748 5751 5752 5753 5754 5755 5757 5758 5758 5758 5757 5759 5762 5762 5762
5733 5729 5725 5721 5718 5716 5714 5714 5713 5713 5713 5713 5712 5712 5713 5714 5716 5717 5719 5720 5721 5722 5724 5725 5725 5727 5728 5728 5730 5731 5732 5733 5733 5734 5736 5736 5736 5736 5738 5742 5744 5745 5745 5745 5746 5747 5747 5747 5747 5748 5751 5751 5751 5751
5726 5722 5718 5714 5711 5708 5707 5706 5707 5707 5707 5708 5709 5709 5709 5710 5711 5712 5712 5713 5714 5716 5718 5719 5720 5721 5722 5722 5723 5724 5725 5725 5726 5727 5728 5727 5728 5728 5732 5735 5735 5736 5737 5736 5737 5737 5738 5738 5739 5741 5742 5743 5742 5742
5717 5713 5709 5705 5702 5701 5700 5699 5699 5702 5702 5703 5704 5704 5705 5706 5707 5707 5708 5708 5709 5711 5711 5712 5713 5714 5716 5717 5717 5718 5718 5718 5719 5719 5719 5719 5720 5721 5723 5724 5725 5726 5726 5727 5728 5728 5728 5729 5732 5734 5733 5733 5733 5733
5708 5704 5700 5697 5694 5691 5691 5691 5692 5693 5696 5697 5698 5699 5699 5700 5701 5702 5703 5704 5703 5704 5705 5706 5707 5709 5711 5711 5711 5711 5711 5710 5711 5712 5710 5711 5714 5714 5714 5715 5717 5717 5718 5719 5719 5720 5721 5722 5723 5723 5723 5723 5723 5722
5698 5694 5691 5688 5685 5683 5682 5684 5685 5686 5688 5690 5692 5693 5694 5694 5695 5696 5697 5698 5698 5699 5699 5701 5701 5702 5704 5704 5704 5704 5703 5702 5703 5704 5702 5705 5708 5706 5706 5707 5708 5709 5710 5710 5711 5713 5714 5715 5715 5714 5714 5714 5714 5714
5690 5686 5682 5679 5677 5675 5674 5676 5678 5680 5681 5684 5685 5687 5688 5688 5689 5690 5691 5692 5692 5693 5694 5695 5696 5696 5697 5698 5697 5697 5696 5695 5697 5698 5697 5700 5700 5699 5699 5700 5701 5702 5703 5703 5705 5706 5706 5707 5707 5707 5707 5707 5706 5705
5683 5678 5674 5671 5669 5667 5666 5668 5670 5672 5674 5676 5678 5680 5682 5683 5683 5684 5686 5687 5687 5688 5689 5689 5690 5690 5691 5691 5692 5692 5691 5691 5692 5692 5693 5692 5691 5691 5692 5693 5695 5696 5697 5698 5699 5699 5699 5699 5699 5699 5699 5697 5696 5696
5674 5670 5667 5663 5662 5660 5660 5661 5663 5664 5665 5668 5670 5673 5674 5676 5678 5679 5680 5680 5681 5682 5683 5683 5684 5684 5684 5685 5685 5686 5687 5687 5688 5687 5685 5685 5685 5686 5687 5688 5689 5689 5690 5692 5692 5693 5692 5692 5692 5691 5690 5689 5688 5686
5666 5662 5659 5657 5655 5655 5655 5656 5657 5658 5658 5660 5663 5664 5667 5669 5671 5672 5673 5674 5676 5676 5677 5678 5678 5679 5678 5679 5679 5681 5682 5683 5683 5683 5682 5681 5680 5679 5680 5681 5682 5684 5684 5685 5685 5685 5684 5684 5683 5682 5681 5680 5678 5676
5658 5655 5652 5650 5650 5650 5651 5651 5652 5652 5652 5653 5655 5656 5659 5662 5664 5666 5667 5668 5669 5670 5671 5672 5672 5673 5673 5673 5674 5674 5676 5678 5679 5677 5677 5677 5675 5675 5677 5678 5678 5678 5678 5678 5677 5677 5676 5676 5675 5674 5672 5670 5669 5667
5649 5647 5646 5645 5645 5646 5646 5646 5645 5644 5645 5647 5647 5646 5651 5654 5656 5659 5660 5661 5662 5663 5663 5665 5666 5666 5668 5668 5669 5669 5671 5672 5673 5674 5673 5672 5671 5672 5673 5673 5673 5672 5671 5671 5671 5671 5670 5668 5667 5666 5664 5662 5660 5659
5640 5641 5641 5641 5641 5641 5641 5640 5640 5640 5639 5638 5640 5641 5645 5647 5649 5651 5652 5653 5655 5656 5656 5658 5659 5659 5661 5663 5662 5663 5665 5667 5669 5669 5669 5666 5668 5669 5668 5668 5668 5667 5667 5667 5667 5665 5664 5663 5661 5659 5657 5656 5654 5653
5636 5636 5636 5636 5636 5636 5635 5634 5634 5635 5635 5635 5636 5638 5640 5641 5641 5641 5643 5644 5647 5648 5649 5650 5651 5655 5656 5655 5657 5658 5660 5663 5664 5665 5666 5666 5666 5666 5666 5666 5666 5664 5664 5664 5663 5662 5660 5657 5655 5653 5651 5650 5650 5648
5632 5631 5631 5630 5630 5629 5629 5630 5630 5631 5630 5630 5631 5632 5632 5631 5633 5634 5634 5635 5637 5639 5642 5644 5646 5646 5647 5648 5651 5653 5656 5659 5660 5662 5663 5664 5664 5663 5663 5663 5663 5662 5662 5661 5660 5657 5655 5653 5650 5649 5647 5647 5647 5648
5628 5627 5626 5626 5626 5625 5625 5625 5625 5626 5625 5623 5624 5625 5623 5624 5625 5627 5627 5627 5629 5630 5630 5632 5634 5635 5637 5640 5643 5646 5650 5653 5656 5658 5659 5660 5660 5661 5661 5661 5660 5660 5659 5658 5657 5655 5653 5651 5649 5647 5645 5645 5646 5647
5626 5625 5624 5623 5623 5621 5621 5621 5620 5620 5619 5618 5617 5617 5616 5617 5617 5618 5618 5620 5620 5620 5622 5624 5626 5627 5630 5633 5636 5640 5644 5649 5651 5654 5655 5656 5657 5658 5658 5658 5658 5657 5657 5656 5655 5654 5652 5651 5650 5649 5648 5646 5646 5648
5623 5622 5621 5619 5619 5618 5618 5616 5615 5614 5613 5612 5612 5611 5610 5610 5611 5611 5612 5612 5613 5614 5615 5616 5617 5621 5624 5627 5630 5635 5639 5643 5646 5649 5651 5653 5654 5655 5656 5655 5655 5655 5655 5655 5654 5653 5652 5650 5650 5650 5650 5649 5650 5650
5620 5618 5616 5614 5613 5612 5611 5609 5608 5608 5607 5607 5606 5606 5606 5606 5606 5606 5606 5607 5608 5609 5610 5611 5614 5615 5618 5621 5625 5629 5634 5638 5641 5645 5647 5649 5650 5652 5653 5654 5653 5653 5653 5653 5653 5653 5652 5650 5650 5650 5650 5650 5649 5650
5616 5614 5612 5609 5607 5605 5603 5602 5602 5602 5602 5602 5603 5603 5603 5603 5603 5603 5604 5605 5605 5606 5607 5609 5611 5613 5615 5618 5621 5625 5629 5633 5637 5640 5643 5645 5648 5650 5651 5652 5651 5651 5651 5651 5651 5652 5652 5652 5651 5651 5650 5649 5649 5650
5610 5609 5606 5603 5601 5600 5599 5599 5599 5600 5600 5601 5601 5601 5602 5602 5602 5603 5603 5602 5602 5605 5606 5609 5610 5612 5614 5617 5620 5623 5626 5629 5633 5636 5639 5642 5644 5647 5649 5650 5649 5649 5650 5650 5650 5650 5651 5651 5651 5650 5650 5650 5650 5651
5606 5603 5601 5599 5599 5598 5598 5599 5599 5600 5600 5600 5601 5601 5602 5602 5602 5602 5602 5604 5604 5606 5608 5609 5610 5612 5614 5616 5619 5621 5623 5625 5629 5632 5635 5639 5642 5645 5647 5647 5647 5648 5649 5649 5648 5649 5649 5650 5650 5650 5649 5649 5650 5650
5602 5600 5600 5600 5599 5599 5599 5600 5600 5600 5600 5601 5602 5603 5603 5602 5602 5603 5603 5604 5605 5606 5607 5608 5609 5610 5612 5615 5617 5619 5621 5624 5627 5631 5635 5638 5641 5643 5644 5645 5645 5646 5648 5648 5648 5648 5648 5648 5649 5649 5649 5649 5648 5648
5602 5601 5601 5601 5600 5600 5601 5601 5601 5601 5601 5601 5602 5601 5602 5602 5602 5603 5604 5606 5606 5607 5607 5607 5608 5610 5612 5614 5617 5619 5623 5626 5629 5632 5634 5637 5639 5641 5642 5643 5644 5646 5646 5647 5646 5646 5646 5646 5646 5647 5647 5647 5647 5646
5603 5603 5602 5602 5602 5602 5603 5603 5602 5602 5601 5601 5601 5600 5601 5602 5602 5603 5605 5606 5607 5607 5608 5608 5609 5611 5613 5615 5618 5621 5625 5627 5630 5632 5634 5636 5638 5640 5640 5641 5642 5644 5644 5644 5644 5644 5644 5645 5645 5645 5644 5644 5644 5643
5604 5604 5604 5604 5604 5604 5603 5603 5602 5601 5600 5600 5600 5600 5599 5600 5603 5605 5606 5607 5608 5608 5609 5611 5612 5613 5614 5617 5620 5623 5626 5628 5630 5632 5634 5635 5636 5637 5638 5639 5640 5641 5642 5642 5642 5643 5643 5643 5643 5643 5643 5642 5641 5640
5606 5606 5606 5606 5606 5606 5605 5604 5602 5601 5599 5599 5600 5599 5600 5601 5602 5604 5606 5607 5608 5609 5610 5610 5612 5613 5615 5618 5621 5624 5626 5627 5628 5630 5631 5633 5634 5634 5635 5636 5637 5639 5640 5640 5639 5639 5639 5639 5639 5638 5639 5639 5638 5638
5608 5608 5608 5609 5609 5609 5608 5606 5604 5603 5601 5601 5602 5602 5603 5603 5603 5604 5605 5607 5609 5610 5610 5611 5611 5613 5615 5617 5619 5621 5623 5625 5627 5628 5629 5630 5631 5632 5632 5633 5634 5635 5636 5636 5635 5635 5634 5633 5633 5633 5633 5633 5633 5632